Weather History for KLWA - June, 2013

Change the Weather History Date:

Wednesday, June 19, 2013

  Actual Average (KBIV) Record (KBIV)
Temperature  
Mean Temperature 60 °F 70 °F  
Max Temperature 72 °F 80 °F 97 °F (1987)
Min Temperature 47 °F 59 °F 43 °F (1965)
Degree Days  
Heating Degree Days 6 1  
Month to date heating degree days 40  
Since 1 June heating degree days 40  
Since 1 July heating degree days 6152  
Cooling Degree Days 0 5  
Month to date cooling degree days 75  
Year to date cooling degree days 117  
Since 1 June cooling degree days 75  
Growing Degree Days 10 (Base 50)    
Moisture  
Dew Point 44 °F    
Average Humidity 59    
Maximum Humidity 92    
Minimum Humidity 25    
Precipitation  
Precipitation 0.00 in 0.14 in 3.21 in (1951)
Month to date precipitation 2.76  
Year to date precipitation 15.35  
Sea Level Pressure  
Sea Level Pressure 30.13 in    
Wind  
Wind Speed 2 mph (NE)    
Max Wind Speed 10 mph    
Max Gust Speed -    
Visibility 10 miles    
Events      
T = Trace of Precipitation, MM = Missing Value Source: NWS Daily Summary

Daily Weather History Graph

Daily Weather History Graph

Search for Another Location

Airport or City:

Trip Planner

Search our weather history database for the weather conditions in past years. The results will help you decide how hot, cold, wet, or windy it might be!

Date:

Astronomy

Jun. 19, 2013 Rise Set
Actual Time 6:07 AM EDT 9:24 PM EDT
Civil Twilight 5:33 AM EDT 9:59 PM EDT
Nautical Twilight 4:48 AM EDT 10:44 PM EDT
Astronomical Twilight 3:53 AM EDT 11:39 PM EDT
Moon 5:14 PM EDT (6/19) 2:56 AM EDT (6/19)
Length of Visible Light 16h 26m
Length of Day
15h 17m
Waxing Gibbous, 80% of the Moon is Illuminated
Jun 19
Waxing Gibbous
Jun 23
Full
Jun 30
Last Quarter
Jul 8
New
Jul 15
First Quarter

Hourly Weather History & Observations

Time (EDT) Temp. Dew Point Humidity Pressure Visibility Wind Dir Wind Speed Gust Speed Precip Events Conditions
12:15 AM 53.8 °F 48.2 °F 81% 30.07 in 10.0 mi Calm Calm - N/A   Clear
12:35 AM 53.2 °F 48.4 °F 84% 30.07 in 10.0 mi Calm Calm - N/A   Clear
12:55 AM 54.7 °F 47.3 °F 76% 30.07 in 10.0 mi Calm Calm - N/A   Clear
1:15 AM 54.7 °F 46.6 °F 74% 30.07 in 10.0 mi Calm Calm - N/A   Clear
1:35 AM 54.5 °F 46.4 °F 74% 30.08 in 10.0 mi East 3.5 mph - N/A   Clear
1:55 AM 54.0 °F 45.9 °F 74% 30.09 in 10.0 mi East 3.5 mph - N/A   Clear
2:15 AM 53.6 °F 45.7 °F 75% 30.10 in 10.0 mi Calm Calm - N/A   Clear
2:35 AM 52.9 °F 45.7 °F 77% 30.10 in 10.0 mi Calm Calm - N/A   Clear
2:55 AM 52.5 °F 45.3 °F 76% 30.10 in 10.0 mi Calm Calm - N/A   Clear
3:15 AM 52.3 °F 44.6 °F 75% 30.10 in 10.0 mi Calm Calm - N/A   Clear
3:34 AM 52.2 °F 44.4 °F 75% 30.10 in 10.0 mi Calm Calm - N/A   Clear
3:55 AM 50.9 °F 44.8 °F 80% 30.10 in 10.0 mi Calm Calm - N/A   Clear
4:15 AM 49.8 °F 44.8 °F 83% 30.11 in 10.0 mi Calm Calm - N/A   Clear
4:35 AM 50.2 °F 44.1 °F 79% 30.11 in 10.0 mi Calm Calm - N/A   Clear
4:55 AM 49.3 °F 44.6 °F 84% 30.12 in 10.0 mi Calm Calm - N/A   Clear
5:15 AM 47.5 °F 45.0 °F 91% 30.13 in 10.0 mi Calm Calm - N/A   Clear
5:35 AM 48.7 °F 45.0 °F 87% 30.14 in 10.0 mi Calm Calm - N/A   Clear
5:55 AM 48.6 °F 44.6 °F 86% 30.14 in 10.0 mi ENE 3.5 mph - N/A   Clear
6:15 AM 48.4 °F 44.6 °F 87% 30.14 in 10.0 mi East 5.8 mph - N/A   Clear
6:35 AM 48.7 °F 44.6 °F 86% 30.15 in 10.0 mi East 4.6 mph - N/A   Clear
6:55 AM 49.3 °F 44.8 °F 84% 30.15 in 10.0 mi East 3.5 mph - N/A   Clear
7:15 AM 50.0 °F 45.3 °F 84% 30.15 in 10.0 mi Calm Calm - N/A   Clear
7:35 AM 51.3 °F 45.7 °F 81% 30.16 in 10.0 mi Calm Calm - N/A   Clear
7:55 AM 53.1 °F 45.5 °F 75% 30.17 in 10.0 mi Calm Calm - N/A   Clear
8:15 AM 55.0 °F 45.1 °F 69% 30.17 in 10.0 mi East 4.6 mph - N/A   Clear
8:35 AM 56.5 °F 44.1 °F 63% 30.17 in 10.0 mi East 9.2 mph - N/A   Clear
8:55 AM 58.1 °F 43.7 °F 59% 30.17 in 10.0 mi East 8.1 mph - N/A   Clear
9:15 AM 59.4 °F 43.9 °F 57% 30.17 in 10.0 mi East 4.6 mph - N/A   Clear
9:35 AM 61.2 °F 44.8 °F 55% 30.18 in 10.0 mi East 3.5 mph - N/A   Clear
9:55 AM 62.8 °F 41.9 °F 46% 30.18 in 10.0 mi ESE 4.6 mph - N/A   Clear
10:14 AM 63.9 °F 41.2 °F 43% 30.17 in 10.0 mi ESE 5.8 mph - N/A   Clear
10:35 AM 64.6 °F 41.4 °F 43% 30.17 in 10.0 mi SE 4.6 mph - N/A   Clear
10:55 AM 65.3 °F 41.2 °F 41% 30.16 in 10.0 mi ESE 5.8 mph - N/A   Clear
11:15 AM 66.2 °F 39.0 °F 37% 30.16 in 10.0 mi East 6.9 mph - N/A   Clear
11:35 AM 66.4 °F 36.1 °F 33% 30.16 in 10.0 mi ESE 3.5 mph - N/A   Clear
11:55 AM 67.3 °F 35.8 °F 31% 30.17 in 10.0 mi SSE 3.5 mph - N/A   Clear
12:15 PM 68.2 °F 35.1 °F 29% 30.17 in 10.0 mi Calm Calm - N/A   Clear
12:35 PM 68.7 °F 37.4 °F 32% 30.17 in 10.0 mi Calm Calm - N/A   Clear
12:55 PM 68.9 °F 33.1 °F 27% 30.16 in 10.0 mi Calm Calm - N/A   Clear
1:15 PM 69.8 °F 32.7 °F 25% 30.16 in 10.0 mi Calm Calm - N/A   Clear
1:35 PM 70.7 °F 34.9 °F 27% 30.15 in 10.0 mi Calm Calm - N/A   Clear
1:55 PM 71.1 °F 38.7 °F 31% 30.14 in 10.0 mi ENE 8.1 mph - N/A   Clear
2:15 PM 70.9 °F 42.6 °F 36% 30.13 in 10.0 mi Calm Calm - N/A   Clear
2:35 PM 72.5 °F 39.6 °F 30% 30.14 in 10.0 mi ESE 5.8 mph - N/A   Clear
2:55 PM 72.1 °F 44.2 °F 37% 30.14 in 10.0 mi Calm Calm - N/A   Clear
3:15 PM 71.6 °F 45.3 °F 39% 30.12 in 10.0 mi NW 8.1 mph - N/A   Clear
3:35 PM 70.0 °F 41.5 °F 36% 30.13 in 10.0 mi NW 10.4 mph - N/A   Clear
3:54 PM 70.7 °F 43.2 °F 37% 30.13 in 10.0 mi WNW 6.9 mph - N/A   Clear
4:15 PM 70.5 °F 43.2 °F 37% 30.12 in 10.0 mi NW 8.1 mph - N/A   Clear
4:35 PM 70.9 °F 43.2 °F 37% 30.12 in 10.0 mi NW 5.8 mph - N/A   Clear
4:54 PM 70.0 °F 41.5 °F 36% 30.12 in 10.0 mi North 6.9 mph - N/A   Clear
5:15 PM 69.8 °F 43.2 °F 38% 30.11 in 10.0 mi NW 5.8 mph - N/A   Clear
5:35 PM 70.2 °F 43.3 °F 38% 30.11 in 10.0 mi NNW 4.6 mph - N/A   Clear
5:54 PM 69.3 °F 42.3 °F 38% 30.11 in 10.0 mi NW 5.8 mph - N/A   Clear
6:15 PM 69.1 °F 44.4 °F 41% 30.11 in 10.0 mi NW 6.9 mph - N/A   Clear
6:35 PM 68.4 °F 44.6 °F 42% 30.10 in 10.0 mi North 4.6 mph - N/A   Clear
6:55 PM 68.2 °F 44.1 °F 42% 30.11 in 10.0 mi NNW 5.8 mph - N/A   Clear
7:15 PM 68.2 °F 43.3 °F 41% 30.11 in 10.0 mi North 3.5 mph - N/A   Clear
7:35 PM 68.4 °F 43.3 °F 40% 30.11 in 10.0 mi Calm Calm - N/A   Clear
7:55 PM 68.0 °F 43.3 °F 41% 30.12 in 10.0 mi Calm Calm - N/A   Clear
8:15 PM 67.1 °F 44.2 °F 44% 30.12 in 10.0 mi Calm Calm - N/A   Clear
8:35 PM 66.9 °F 45.3 °F 46% 30.12 in 10.0 mi Calm Calm - N/A   Clear
8:55 PM 64.4 °F 47.8 °F 55% 30.12 in 10.0 mi Calm Calm - N/A   Clear
9:15 PM 61.0 °F 49.5 °F 66% 30.11 in 10.0 mi Calm Calm - N/A   Clear
9:35 PM 58.5 °F 49.5 °F 72% 30.12 in 10.0 mi Calm Calm - N/A   Clear
9:55 PM 56.7 °F 48.7 °F 75% 30.12 in 10.0 mi Calm Calm - N/A   Clear
10:15 PM 55.9 °F 50.0 °F 80% 30.12 in 10.0 mi Calm Calm - N/A   Clear
10:34 PM 54.1 °F 49.6 °F 85% 30.12 in 10.0 mi Calm Calm - N/A   Clear
10:55 PM 53.6 °F 49.3 °F 85% 30.14 in 10.0 mi Calm Calm - N/A   Clear
11:15 PM 52.2 °F 48.7 °F 88% 30.14 in 10.0 mi Calm Calm - N/A   Clear
11:34 PM 52.2 °F 49.3 °F 90% 30.14 in 10.0 mi Calm Calm - N/A   Clear
11:55 PM 51.1 °F 48.7 °F 92% 30.14 in 10.0 mi Calm Calm - N/A   Clear